www.pogodaiklimat.ru

Погода и климат >> Архив погоды >> Иран >> Khark


ПОГОДА в Khark

  • Прогноз погоды в Khark
  • Монитор погоды в Khark
  • Климат города

АРХИВ ПОГОДЫ в Khark

Время (UTC), дата Ветер
(напр.,м/с)
 
Видим.   Явления Облачность Т
(С)
Тd
(С)
f
(%)
Тe
(С)
Тes
(С)
Комфортность P
(гПа)
Po
(гПа)
Тmin
(С)
Tmax
(С)
R
(мм)
R24
(мм)
S
(см)
03 11.10 З 3 8000 м дымка ясно +29.6 +27.1 86 +47 +47 опасность
перегрева
1008.5 1008.0 +26.1
06 11.10 С 3 10 км ясно +32.5 +26.5 71 +49 +56 опасность
перегрева
1010.1 1009.6
09 11.10 СЗ 5 10 км ясно +32.9 +25.8 66 +48 +55 опасность
перегрева
1009.6 1009.1
12 11.10 СЗ 8 10 км ясно +33.0 +21.8 52 +41 +42 опасность
перегрева
1008.7 1008.2
15 11.10 СЗ 7 7000 м пыль ясно +32.6 +22.7 56 +42 +42 опасность
перегрева
1008.9 1008.4 +33.7
03 12.10 СЗ 11 10 км ясно +29.4 +17.5 49 +34 +34 очень
душно
1011.0 1010.5 +29.4
06 12.10 СЗ 9 10 км ясно +30.6 +17.6 46 +35 +36 очень
душно
1012.7 1012.2
09 12.10 СЗ 8 10 км ясно +31.3 +17.0 42 +35 +37 очень
душно
1011.7 1011.2
12 12.10 СЗ 9 10 км ясно +31.6 +19.4 48 +37 +38 очень
душно
1010.6 1010.1
15 12.10 СЗ 8 10 км ясно +31.0 +19.9 52 +37 +37 очень
душно
1010.6 1010.1 +31.7
03 13.10 СЗ 9 10 км ясно +28.4 +17.8 53 +33 +33 очень
душно
1010.0 1009.5 +28.2
06 13.10 СЗ 6 10 км ясно +31.6 +17.5 43 +36 +38 очень
душно
1011.3 1010.8
09 13.10 СЗ 8 10 км ясно +32.0 +19.7 48 +38 +40 очень
душно
1010.1 1009.6
12 13.10 З 7 10 км ясно +32.4 +20.3 49 +39 +40 очень
душно
1008.5 1008.0
15 13.10 З 6 10 км ясно +31.7 +20.1 50 +38 +38 очень
душно
1008.2 1007.7 +33.3
03 14.10 СЗ 8 10 км ясно +31.2 +17.5 44 +35 +35 очень
душно
1008.9 1008.4 +30.6
06 14.10 СЗ 6 10 км ясно +32.7 +18.6 43 +37 +40 очень
душно
1010.3 1009.8
09 14.10 СЗ 7 10 км ясно +33.5 +20.1 45 +40 +43 очень
душно
1008.7 1008.2
12 14.10 СЗ 7 10 км ясно +33.9 +21.9 50 +43 +44 опасность
перегрева
1007.3 1006.8
15 14.10 З 6 10 км ясно +32.5 +21.3 52 +40 +40 очень
душно
1007.5 1007.0 +34.1
03 15.10 С 7 10 км ясно +30.6 +19.1 50 +36 +36 очень
душно
1008.6 1008.1 +30.3
06 15.10 С 2 10 км ясно +31.8 +21.6 55 +40 +47 очень
душно
1010.3 1009.8
09 15.10 СЗ 6 10 км ясно +33.5 +21.6 50 +42 +47 опасность
перегрева
1009.6 1009.1
12 15.10 СЗ 5 10 км ясно +33.7 +22.6 52 +43 +46 опасность
перегрева
1008.7 1008.2
15 15.10 З 3 10 км ясно +31.3 +23.4 63 +42 +42 опасность
перегрева
1008.8 1008.3 +34.1
03 16.10 штиль 0 10 км ясно +27.5 +22.3 73 +36 +36 очень
душно
1009.5 1009.0 +27.5
06 16.10 СЗ 2 12 км ясно +32.2 +24.3 63 +44 +52 опасность
перегрева
1011.0 1010.5
09 16.10 СЗ 5 12 км ясно +32.7 +23.2 57 +43 +50 опасность
перегрева
1010.3 1009.8
12 16.10 СЗ 4 12 км ясно +33.2 +20.4 47 +40 +43 очень
душно
1009.0 1008.5
15 16.10 З 3 10 км ясно +31.3 +24.6 68 +44 +44 опасность
перегрева
1008.7 1008.2 +34.5
03 17.10 С 6 12 км ясно +30.7 +21.6 58 +39 +39 очень
душно
1008.7 1008.2 +28.4
06 17.10 С 3 12 км ясно +31.6 +21.8 56 +40 +46 очень
душно
1010.4 1009.9
09 17.10 СЗ 4 12 км ясно +32.3 +21.2 52 +40 +49 очень
душно
1009.9 1009.4
12 17.10 СЗ 4 12 км ясно +33.5 +20.3 46 +40 +43 очень
душно
1008.4 1007.9
15 17.10 З 2 12 км ясно +30.5 +24.0 68 +42 +42 опасность
перегрева
1008.4 1007.9 +33.6

 

Местоположение метеостанции Khark (Иран): широта 29.26 долгота 50.32 высота над уровнем моря 3 м.

В архиве по умолчанию представлена погода в Khark за последнюю неделю. Архивные данные за месяц целиком и за предыдущие месяцы, начиная с января 2011 года, Вы можете получить, выбрав интересующий диапазон дат из раскрывающегося списка и нажав кнопку "Ввод!".

Внимание! Время в таблицах - всемирное. Для получения местного времени необходимо прибавить поправку, которая в Khark равна 3.5 ч.

Смотрите также архив погоды в соседних городах и на ближайших метеорологических станциях:

Погода в Bushehr Airport (Иран) (59 км)
Погода в Bushehr (Иран) (62 км)
Погода в Gach Saran (Иран) (137 км)
Погода в Nuwasib (Кувейт) (175 км)
Погода в Umm-Al-Maradim (Кувейт) (175 км)
Погода в Omidieh (Иран) (179 км)
Погода в Fao (Ирак) (193 км)
Погода в Bubiyan (Кувейт) (196 км)
Погода в Yasuj (Иран) (198 км)
Погода в Failaka Island (Кувейт) (199 км)

Пояснения к столбцам:

Ветер - указаны скорость ветра в м/с - средняя за 10 мин, порывы в срок и между сроками (в фигурных скобках) и направление, откуда дует ветер: С - северный, СВ - северо-восточный, В - восточный, ЮВ - юго-восточный, Ю - южный, ЮЗ - юго-западный, З - западный, СЗ - северо-западный.
Видимость - горизонтальная дальность видимости в метрах или километрах. При видимости от 1 до 10 км при отсутствии осадков обычно наблюдается дымка, при ухудшении видимости до 1 км и менее - туман. В сухую погоду видимость может ухудшаться дымом, пылью или мглою.
Явления - указаны атмосферные явления, наблюдавшиеся в срок или в последний час перед сроком; фигурными скобками обозначены явления, наблюдавшиеся между сроками (за 1-3 часа до срока); квадратными скобками обозначены град или гололедные отложения с указанием их диаметра в мм.
Облачность - указаны через наклонную черту общая и нижняя облачность в баллах и высота нижней границы облаков в метрах; квадратными скобками обозначены формы облаков: Ci - перистые, Cs - перисто-слоистые, Cc - перисто-кучевые, Ac - высококучевые, As - высокослоистые, Sc - слоисто-кучевые, Ns - слоисто-дождевые, Cu - кучевые, Cb - кучево-дождевые. Подробнее классификацию облаков см. в Атласе облаков (PDF).
T - Температура воздуха - температура, измеренная на высоте 2 м над землей.
Td - Температура точки росы - температура, при понижении до которой содержащийся в воздухе водяной пар достигнет насыщения.
f - Относительная влажность воздуха - влажноcть воздуха, измеренная на высоте 2 м над землей.
Te - Эффективная температура - температура, которую ощущает одетый по сезону человек в тени. Характеристика душности погоды. При расчете учитывается влияние влажности воздуха и скорости ветра на теплоощущения человека.
Tes - Эффективная температура на солнце - температура, которую ощущает человек, с поправкой на солнечный нагрев. Характеристика знойности погоды. Зависит от высоты солнца над горизонтом, облачности и скорости ветра. Ночью, в пасмурную погоду, а также при ветре 12 м/с и более поправка равна нулю.
P - Атмосферное давление - приведенное к уровню моря атмосферное давление.
Po - Атмосферное давление - измеренное на уровне метеостанции атмосферное давление.
Tmin - Минимальная температура - минимум температуры воздуха на высоте 2 м над землей.
Tmax - Максимальная температура - максимум температуры воздуха на высоте 2 м над землей.
R - Количество осадков - Количество выпавших осадков за период времени, мм. При наведении курсора мыши на число - период времени, за который выпало указанное количество осадков.
R24 - Количество осадков - Количество выпавших осадков за 24 часа, мм.
S - Снежный покров - Высота снежного покрова, см. При наведении курсора мыши на число - состояние снежного покрова и степень покрытия местности в баллах.